Location: Borovka
(49.7741°N, 14.5280°E)
Time: 17:30:04
(UTC+00:00)

CORIOLIS - Pass Details

Date: 17 November 2025
Orbit: 815 x 836 km, 98.7° (Epoch: 09 December)

Event Time Altitude Azimuth Distance (km) Brightness Sun altitude
Rises 15:51:09 0° 152° (SSE) 3,349 7.3 -5.9°
Reaches altitude 10° 15:53:30 10° 150° (SSE) 2,417 6.5 -6.3°
Maximum altitude 15:58:47 63° 70° (ENE) 913 4.2 -7.1°
Drops below altitude 10° 16:04:04 10° 350° (N) 2,423 6.5 -7.9°
Sets 16:06:26 0° 348° (NNW) 3,357 7.2 -8.2°
